Time,TemperatureF,DewpointF,PressureIn,WindDirection,WindDirectionDegrees,WindSpeedMPH,WindSpeedGustMPH,Humidity,HourlyPrecipIn,Conditions,Clouds,dailyrainin,SolarRadiationWatts/m^2,SoftwareType,DateUTC
2013-09-11 00:01:00,69.4,67.6,30.06,South,173,0.0,0.0,94,0.00,OVC,,0.05,0.0,WeatherDisplay:10.37,2013-09-11 04:01:00,
2013-09-11 00:02:00,69.4,67.6,30.06,South,173,0.0,0.0,94,0.00,RA,OVC,0.00,0.0,WeatherDisplay:10.37,2013-09-11 04:02:00,
2013-09-11 00:07:00,69.4,67.6,30.06,South,173,0.0,0.0,94,0.00,RA,OVC,0.00,0.0,WeatherDisplay:10.37,2013-09-11 04:07:00,
2013-09-11 00:12:00,69.4,67.6,30.06,South,173,0.0,0.0,94,0.00,OVC,,0.00,0.0,WeatherDisplay:10.37,2013-09-11 04:12:00,
2013-09-11 00:17:00,69.4,67.6,30.06,South,173,0.0,0.0,94,0.00,OVC,,0.00,0.0,WeatherDisplay:10.37,2013-09-11 04:17:00,
2013-09-11 00:22:00,69.4,67.6,30.06,SE,136,0.0,0.0,94,0.00,OVC,,0.00,0.0,WeatherDisplay:10.37,2013-09-11 04:22:00,
2013-09-11 00:27:00,69.4,67.9,30.06,SE,138,0.0,0.0,95,0.00,OVC,,0.00,0.0,WeatherDisplay:10.37,2013-09-11 04:27:00,
2013-09-11 00:32:00,69.4,67.9,30.06,SE,138,0.0,0.0,95,0.00,OVC,,0.00,0.0,WeatherDisplay:10.37,2013-09-11 04:32:00,
2013-09-11 00:37:00,69.4,67.9,30.06,SE,138,0.0,0.0,95,0.00,OVC,,0.00,0.0,WeatherDisplay:10.37,2013-09-11 04:37:00,
2013-09-11 00:42:00,69.4,67.9,30.06,SE,138,0.0,0.0,95,0.00,OVC,,0.00,0.0,WeatherDisplay:10.37,2013-09-11 04:42:00,
2013-09-11 00:47:00,69.4,67.9,30.06,South,181,0.0,0.0,95,0.00,OVC,,0.00,0.0,WeatherDisplay:10.37,2013-09-11 04:47:00,
2013-09-11 00:52:00,69.6,68.1,30.06,South,173,0.0,0.0,95,0.00,OVC,,0.00,0.0,WeatherDisplay:10.37,2013-09-11 04:52:00,
2013-09-11 00:57:00,69.6,68.1,30.06,SSE,159,0.0,0.0,95,0.00,OVC,,0.00,0.0,WeatherDisplay:10.37,2013-09-11 04:57:00,
2013-09-11 01:02:00,69.6,68.4,30.06,SSE,160,0.0,0.0,96,0.00,BKN,OVC,0.00,0.0,WeatherDisplay:10.37,2013-09-11 05:02:00,
2013-09-11 01:07:00,69.6,68.4,30.06,South,173,0.0,0.0,96,0.00,BKN,OVC,0.00,0.0,WeatherDisplay:10.37,2013-09-11 05:07:00,
2013-09-11 02:51:00,70.5,69.6,30.03,South,177,0.0,0.0,97,0.00,BKN,OVC,0.00,0.0,WeatherDisplay:10.37,2013-09-11 06:51:00,
2013-09-11 02:57:00,70.7,69.8,30.03,South,173,0.0,0.0,97,0.00,BKN,OVC,0.00,0.0,WeatherDisplay:10.37,2013-09-11 06:57:00,
2013-09-11 03:02:00,70.7,69.8,30.03,SW,215,0.0,0.0,97,0.00,CLR,OVC,0.00,0.0,WeatherDisplay:10.37,2013-09-11 07:02:00,
2013-09-11 03:07:00,70.9,70.0,30.03,SSW,194,0.0,0.0,97,0.00,CLR,OVC,0.00,0.0,WeatherDisplay:10.37,2013-09-11 07:07:00,
2013-09-11 03:12:00,70.9,70.3,30.03,South,180,0.0,0.0,98,0.00,CLR,OVC,0.00,0.0,WeatherDisplay:10.37,2013-09-11 07:12:00,
2013-09-11 03:17:00,70.9,70.3,30.03,South,183,0.0,0.0,98,0.00,CLR,OVC,0.00,0.0,WeatherDisplay:10.37,2013-09-11 07:17:00,
2013-09-11 03:22:00,71.1,70.5,30.03,WNW,301,0.0,0.0,98,0.00,CLR,OVC,0.00,0.0,WeatherDisplay:10.37,2013-09-11 07:22:00,
2013-09-11 03:27:00,71.1,70.5,30.03,South,184,3.5,0.0,98,0.00,CLR,OVC,0.00,0.0,WeatherDisplay:10.37,2013-09-11 07:27:00,
2013-09-11 03:32:00,71.1,70.5,30.03,SW,225,0.0,0.0,98,0.00,CLR,OVC,0.00,0.0,WeatherDisplay:10.37,2013-09-11 07:32:00,
2013-09-11 03:37:00,71.1,70.5,30.03,SE,142,0.0,0.0,98,0.00,CLR,OVC,0.00,0.0,WeatherDisplay:10.37,2013-09-11 07:37:00,
2013-09-11 03:42:00,71.2,70.6,30.03,ESE,108,0.0,0.0,98,0.00,CLR,OVC,0.00,0.0,WeatherDisplay:10.37,2013-09-11 07:42:00,
2013-09-11 03:47:00,71.2,70.6,30.03,ESE,116,0.0,0.0,98,0.00,CLR,OVC,0.00,0.0,WeatherDisplay:10.37,2013-09-11 07:47:00,
2013-09-11 03:52:00,71.2,70.6,30.03,SW,225,0.0,0.0,98,0.00,CLR,OVC,0.00,0.0,WeatherDisplay:10.37,2013-09-11 07:52:00,
2013-09-11 03:57:00,71.2,70.6,30.03,SW,228,0.0,0.0,98,0.00,CLR,OVC,0.00,0.0,WeatherDisplay:10.37,2013-09-11 07:57:00,
2013-09-11 04:02:00,71.1,70.5,30.03,WNW,293,0.0,0.0,98,0.00,CLR,OVC,0.00,0.0,WeatherDisplay:10.37,2013-09-11 08:02:00,
2013-09-11 04:07:00,70.9,70.3,30.03,WSW,248,0.0,0.0,98,0.00,CLR,OVC,0.00,0.0,WeatherDisplay:10.37,2013-09-11 08:07:00,
2013-09-11 04:12:00,70.9,70.3,30.03,WSW,248,0.0,0.0,98,0.00,CLR,OVC,0.00,0.0,WeatherDisplay:10.37,2013-09-11 08:12:00,
2013-09-11 04:17:00,70.9,70.3,30.03,SE,144,0.0,0.0,98,0.00,CLR,OVC,0.00,0.0,WeatherDisplay:10.37,2013-09-11 08:17:00,
2013-09-11 04:22:00,70.9,70.3,30.03,SE,146,0.0,0.0,98,0.00,CLR,OVC,0.00,0.0,WeatherDisplay:10.37,2013-09-11 08:22:00,
2013-09-11 04:27:00,70.7,70.1,30.03,SE,146,0.0,0.0,98,0.00,CLR,OVC,0.00,0.0,WeatherDisplay:10.37,2013-09-11 08:27:00,
2013-09-11 04:32:00,70.7,70.1,30.03,SE,146,0.0,0.0,98,0.00,CLR,OVC,0.00,0.0,WeatherDisplay:10.37,2013-09-11 08:32:00,
2013-09-11 04:37:00,70.7,70.1,30.03,SE,146,0.0,0.0,98,0.00,CLR,OVC,0.00,0.0,WeatherDisplay:10.37,2013-09-11 08:37:00,
2013-09-11 04:42:00,70.5,69.9,30.03,WSW,239,0.0,0.0,98,0.00,CLR,OVC,0.00,0.0,WeatherDisplay:10.37,2013-09-11 08:42:00,
2013-09-11 04:48:00,70.5,69.9,30.03,WSW,239,0.0,0.0,98,0.00,CLR,OVC,0.00,0.0,WeatherDisplay:10.37,2013-09-11 08:48:00,
2013-09-11 04:53:00,70.5,69.9,30.03,WSW,239,0.0,0.0,98,0.00,CLR,OVC,0.00,0.0,WeatherDisplay:10.37,2013-09-11 08:53:00,
2013-09-11 04:58:00,70.5,69.9,30.03,WSW,239,0.0,0.0,98,0.00,CLR,OVC,0.00,0.0,WeatherDisplay:10.37,2013-09-11 08:58:00,
2013-09-11 05:03:00,70.5,69.9,30.03,WSW,238,0.0,0.0,98,0.00,CLR,OVC,0.00,0.0,WeatherDisplay:10.37,2013-09-11 09:03:00,
2013-09-11 05:08:00,70.5,69.9,30.03,WSW,239,0.0,0.0,98,0.00,CLR,OVC,0.00,0.0,WeatherDisplay:10.37,2013-09-11 09:08:00,
2013-09-11 05:13:00,70.5,69.9,30.03,WSW,239,0.0,0.0,98,0.00,CLR,OVC,0.00,0.0,WeatherDisplay:10.37,2013-09-11 09:13:00,
2013-09-11 05:18:00,70.5,69.9,30.03,WSW,239,0.0,0.0,98,0.00,CLR,OVC,0.00,0.0,WeatherDisplay:10.37,2013-09-11 09:18:00,
2013-09-11 05:23:00,70.5,69.9,30.03,WSW,239,0.0,0.0,98,0.00,CLR,OVC,0.00,0.0,WeatherDisplay:10.37,2013-09-11 09:23:00,
2013-09-11 05:28:00,70.5,69.9,30.03,WSW,239,0.0,0.0,98,0.00,CLR,OVC,0.00,0.0,WeatherDisplay:10.37,2013-09-11 09:28:00,
2013-09-11 05:33:00,70.5,69.9,30.03,SSW,208,0.0,0.0,98,0.00,CLR,OVC,0.00,0.0,WeatherDisplay:10.37,2013-09-11 09:33:00,
2013-09-11 05:38:00,70.7,70.4,30.03,South,191,0.0,0.0,99,0.00,CLR,OVC,0.00,0.0,WeatherDisplay:10.37,2013-09-11 09:38:00,
2013-09-11 05:43:00,70.7,70.4,30.03,South,191,0.0,0.0,99,0.00,CLR,OVC,0.00,0.0,WeatherDisplay:10.37,2013-09-11 09:43:00,
2013-09-11 05:48:00,70.7,70.4,30.03,SSW,208,0.0,0.0,99,0.00,CLR,OVC,0.00,0.0,WeatherDisplay:10.37,2013-09-11 09:48:00,
2013-09-11 05:53:00,70.7,70.4,30.03,SSW,210,0.0,0.0,99,0.00,CLR,OVC,0.00,0.0,WeatherDisplay:10.37,2013-09-11 09:53:00,
2013-09-11 05:58:00,70.9,70.6,30.03,SSW,210,0.0,0.0,99,0.00,CLR,OVC,0.00,0.0,WeatherDisplay:10.37,2013-09-11 09:58:00,
2013-09-11 06:03:00,70.9,70.6,30.03,SSW,210,0.0,0.0,99,0.00,CLR,OVC,0.00,0.0,WeatherDisplay:10.37,2013-09-11 10:03:00,
2013-09-11 06:08:00,70.7,70.1,30.03,SSW,210,0.0,0.0,98,0.00,CLR,OVC,0.00,0.0,WeatherDisplay:10.37,2013-09-11 10:08:00,
2013-09-11 06:13:00,70.5,69.9,30.06,SSW,210,0.0,0.0,98,0.00,CLR,OVC,0.00,0.0,WeatherDisplay:10.37,2013-09-11 10:13:00,
2013-09-11 06:18:00,70.3,69.7,30.06,SSW,211,0.0,0.0,98,0.00,CLR,OVC,0.00,0.0,WeatherDisplay:10.37,2013-09-11 10:18:00,
2013-09-11 06:23:00,70.2,69.6,30.06,SSW,211,0.0,0.0,98,0.00,CLR,OVC,0.00,0.0,WeatherDisplay:10.37,2013-09-11 10:23:00,
2013-09-11 06:28:00,70.0,69.4,30.06,SSW,211,0.0,0.0,98,0.00,CLR,OVC,0.00,0.0,WeatherDisplay:10.37,2013-09-11 10:28:00,
2013-09-11 06:33:00,69.8,69.2,30.06,SSW,211,0.0,0.0,98,0.00,CLR,OVC,0.00,0.0,WeatherDisplay:10.37,2013-09-11 10:33:00,
2013-09-11 06:39:00,69.6,69.0,30.06,SSW,210,0.0,0.0,98,0.00,CLR,OVC,0.00,0.0,WeatherDisplay:10.37,2013-09-11 10:39:00,
2013-09-11 06:44:00,69.4,68.9,30.06,SSW,210,0.0,0.0,98,0.00,CLR,OVC,0.00,0.0,WeatherDisplay:10.37,2013-09-11 10:44:00,
2013-09-11 06:49:00,69.3,68.7,30.06,SSW,210,0.0,0.0,98,0.00,SCT,OVC,0.00,0.0,WeatherDisplay:10.37,2013-09-11 10:49:00,
2013-09-11 06:54:00,69.1,68.5,30.06,SSW,210,0.0,0.0,98,0.00,SCT,OVC,0.00,0.0,WeatherDisplay:10.37,2013-09-11 10:54:00,
2013-09-11 06:59:00,69.1,68.8,30.06,SSW,210,0.0,0.0,99,0.00,SCT,OVC,0.00,0.0,WeatherDisplay:10.37,2013-09-11 10:59:00,
2013-09-11 07:04:00,69.1,68.8,30.06,North,0,0.0,0.0,99,0.00,CLR,OVC,0.00,0.0,WeatherDisplay:10.37,2013-09-11 11:04:00,
2013-09-11 07:09:00,69.1,68.8,30.06,SSW,210,0.0,0.0,99,0.00,SCT,OVC,0.00,0.0,WeatherDisplay:10.37,2013-09-11 11:09:00,
2013-09-11 07:14:00,69.1,68.8,30.06,SSW,210,0.0,0.0,99,0.00,SCT,OVC,0.00,0.0,WeatherDisplay:10.37,2013-09-11 11:14:00,
2013-09-11 07:19:00,69.1,68.8,30.06,SSW,211,0.0,0.0,99,0.00,SCT,OVC,0.00,0.0,WeatherDisplay:10.37,2013-09-11 11:19:00,
2013-09-11 07:24:00,69.1,68.8,30.06,SSW,210,0.0,0.0,99,0.00,SCT,OVC,0.00,0.0,WeatherDisplay:10.37,2013-09-11 11:24:00,
2013-09-11 07:29:00,69.1,68.8,30.06,SSW,210,0.0,0.0,99,0.00,SCT,OVC,0.00,0.0,WeatherDisplay:10.37,2013-09-11 11:29:00,
2013-09-11 07:34:00,69.3,69.0,30.06,SSW,210,0.0,0.0,99,0.00,SCT,OVC,0.00,0.0,WeatherDisplay:10.37,2013-09-11 11:34:00,
2013-09-11 07:39:00,69.3,69.0,30.06,SSW,210,0.0,0.0,99,0.00,SCT,OVC,0.00,0.0,WeatherDisplay:10.37,2013-09-11 11:39:00,
2013-09-11 07:44:00,69.4,69.1,30.06,SSW,210,0.0,0.0,99,0.00,SCT,OVC,0.00,0.0,WeatherDisplay:10.37,2013-09-11 11:44:00,
2013-09-11 07:49:00,69.8,69.8,30.06,SW,223,0.0,0.0,100,0.00,SCT,OVC,0.00,0.0,WeatherDisplay:10.37,2013-09-11 11:49:00,
2013-09-11 07:54:00,70.2,70.2,30.06,SW,219,0.0,0.0,100,0.00,SCT,OVC,0.00,0.0,WeatherDisplay:10.37,2013-09-11 11:54:00,
2013-09-11 07:59:00,70.5,70.5,30.06,South,177,0.0,0.0,100,0.00,SCT,OVC,0.00,0.0,WeatherDisplay:10.37,2013-09-11 11:59:00,
2013-09-11 08:04:00,71.1,71.1,30.06,SSW,211,3.5,0.0,100,0.00,SCT,OVC,0.00,0.0,WeatherDisplay:10.37,2013-09-11 12:04:00,
2013-09-11 08:09:00,71.4,71.4,30.06,SW,227,0.0,0.0,100,0.00,SCT,OVC,0.00,0.0,WeatherDisplay:10.37,2013-09-11 12:09:00,
2013-09-11 08:14:00,71.8,71.8,30.06,South,183,0.0,2.2,100,0.00,SCT,OVC,0.00,0.0,WeatherDisplay:10.37,2013-09-11 12:14:00,
2013-09-11 08:19:00,72.0,72.0,30.06,WNW,290,0.0,0.0,100,0.00,SCT,OVC,0.00,0.0,WeatherDisplay:10.37,2013-09-11 12:19:00,
2013-09-11 08:24:00,72.3,72.3,30.06,West,267,0.0,0.0,100,0.00,SCT,OVC,0.00,0.0,WeatherDisplay:10.37,2013-09-11 12:24:00,
2013-09-11 08:29:00,72.5,72.5,30.06,WSW,251,0.0,0.0,100,0.00,SCT,OVC,0.00,0.0,WeatherDisplay:10.37,2013-09-11 12:29:00,
2013-09-11 08:34:00,72.9,72.9,30.06,WSW,237,0.0,0.0,100,0.00,SCT,OVC,0.00,0.0,WeatherDisplay:10.37,2013-09-11 12:34:00,
2013-09-11 08:39:00,73.0,73.0,30.06,WNW,290,0.0,0.0,100,0.00,SCT,OVC,0.00,0.0,WeatherDisplay:10.37,2013-09-11 12:39:00,
2013-09-11 08:44:00,73.2,73.2,30.06,South,170,3.5,0.0,100,0.00,SCT,OVC,0.00,0.0,WeatherDisplay:10.37,2013-09-11 12:44:00,
2013-09-11 08:49:00,73.6,73.6,30.06,WSW,240,0.0,0.0,100,0.00,SCT,OVC,0.00,0.0,WeatherDisplay:10.37,2013-09-11 12:49:00,
2013-09-11 08:54:00,73.9,73.9,30.06,South,177,3.5,4.0,100,0.00,SCT,OVC,0.00,0.0,WeatherDisplay:10.37,2013-09-11 12:54:00,
2013-09-11 08:59:00,74.3,74.3,30.06,NNW,330,5.8,5.8,100,0.00,SCT,OVC,0.00,0.0,WeatherDisplay:10.37,2013-09-11 12:59:00,
2013-09-11 09:04:00,74.7,74.7,30.06,South,177,0.0,0.0,100,0.00,SCT,OVC,0.00,0.0,WeatherDisplay:10.37,2013-09-11 13:04:00,
2013-09-11 09:09:00,75.0,75.0,30.06,North,355,0.0,0.0,100,0.00,SCT,OVC,0.00,0.0,WeatherDisplay:10.37,2013-09-11 13:09:00,
2013-09-11 09:14:00,75.4,75.4,30.06,WNW,290,5.8,5.8,100,0.00,SCT,OVC,0.00,0.0,WeatherDisplay:10.37,2013-09-11 13:14:00,
2013-09-11 09:19:00,75.9,75.9,30.06,WNW,292,0.0,0.0,100,0.00,SCT,OVC,0.00,0.0,WeatherDisplay:10.37,2013-09-11 13:19:00,
2013-09-11 09:24:00,76.5,76.5,30.06,West,264,5.8,5.8,100,0.00,SCT,OVC,0.00,0.0,WeatherDisplay:10.37,2013-09-11 13:24:00,
2013-09-11 09:29:00,77.0,77.0,30.06,NNW,332,0.0,0.0,100,0.00,SCT,OVC,0.00,0.0,WeatherDisplay:10.37,2013-09-11 13:29:00,
2013-09-11 09:34:00,77.7,77.7,30.06,NW,318,6.9,6.9,100,0.00,SCT,OVC,0.00,0.0,WeatherDisplay:10.37,2013-09-11 13:34:00,
2013-09-11 09:39:00,78.3,78.3,30.06,South,181,5.8,0.0,100,0.00,SCT,OVC,0.00,0.0,WeatherDisplay:10.37,2013-09-11 13:39:00,
2013-09-11 09:44:00,79.0,78.7,30.06,SW,226,2.3,2.3,99,0.00,SCT,OVC,0.00,0.0,WeatherDisplay:10.37,2013-09-11 13:44:00,
2013-09-11 09:48:00,79.5,79.2,30.06,SSE,154,5.8,5.8,99,0.00,SCT,OVC,0.00,0.0,WeatherDisplay:10.37,2013-09-11 13:48:00,
2013-09-11 09:53:00,80.2,79.6,30.06,SW,215,5.8,5.8,98,0.00,SCT,OVC,0.00,0.0,WeatherDisplay:10.37,2013-09-11 13:53:00,
2013-09-11 09:59:00,81.0,80.0,30.06,South,188,3.5,3.5,97,0.00,SCT,OVC,0.00,0.0,WeatherDisplay:10.37,2013-09-11 13:59:00,
2013-09-11 10:04:00,81.5,80.6,30.06,WNW,298,0.0,0.0,97,0.00,BKN,OVC,0.00,0.0,WeatherDisplay:10.37,2013-09-11 14:04:00,
2013-09-11 10:09:00,82.2,81.3,30.06,SSW,211,3.5,0.0,97,0.00,BKN,OVC,0.00,0.0,WeatherDisplay:10.37,2013-09-11 14:09:00,
2013-09-11 10:14:00,82.8,81.5,30.06,WSW,248,0.0,0.0,96,0.00,BKN,OVC,0.00,0.0,WeatherDisplay:10.37,2013-09-11 14:14:00,
2013-09-11 10:19:00,83.3,81.7,30.06,WNW,293,0.0,0.0,95,0.00,BKN,OVC,0.00,0.0,WeatherDisplay:10.37,2013-09-11 14:19:00,
2013-09-11 10:24:00,83.8,81.6,30.06,South,180,0.0,0.0,93,0.00,BKN,OVC,0.00,0.0,WeatherDisplay:10.37,2013-09-11 14:24:00,
2013-09-11 10:29:00,84.2,81.3,30.06,West,279,4.6,4.6,91,0.00,BKN,OVC,0.00,0.0,WeatherDisplay:10.37,2013-09-11 14:29:00,
2013-09-11 10:34:00,84.7,81.5,30.06,SW,216,4.6,0.0,90,0.00,BKN,OVC,0.00,0.0,WeatherDisplay:10.37,2013-09-11 14:34:00,
2013-09-11 10:39:00,85.1,81.5,30.06,NNW,344,0.0,0.0,89,0.00,BKN,OVC,0.00,0.0,WeatherDisplay:10.37,2013-09-11 14:39:00,
2013-09-11 10:44:00,85.6,82.0,30.06,WSW,247,4.0,4.0,89,0.00,BKN,OVC,0.00,0.0,WeatherDisplay:10.37,2013-09-11 14:44:00,
2013-09-11 10:49:00,86.2,81.9,30.06,WNW,290,3.5,0.0,87,0.00,BKN,OVC,0.00,0.0,WeatherDisplay:10.37,2013-09-11 14:49:00,
2013-09-11 10:54:00,86.5,81.5,30.06,NW,318,3.5,3.5,85,0.00,BKN,OVC,0.00,0.0,WeatherDisplay:10.37,2013-09-11 14:54:00,
2013-09-11 10:59:00,86.9,80.7,30.06,SSW,205,3.5,0.0,82,0.00,BKN,OVC,0.00,0.0,WeatherDisplay:10.37,2013-09-11 14:59:00,
2013-09-11 11:04:00,87.1,80.2,30.06,WNW,291,2.3,0.0,80,0.00,BKN,OVC,0.00,0.0,WeatherDisplay:10.37,2013-09-11 15:04:00,
2013-09-11 11:09:00,87.3,79.6,30.06,West,272,3.5,0.0,78,0.00,BKN,OVC,0.00,0.0,WeatherDisplay:10.37,2013-09-11 15:09:00,
2013-09-11 11:14:00,87.4,79.7,30.06,NNW,339,5.8,5.8,78,0.00,BKN,OVC,0.00,0.0,WeatherDisplay:10.37,2013-09-11 15:14:00,
2013-09-11 11:19:00,87.6,78.7,30.06,SE,128,3.5,3.5,75,0.00,BKN,OVC,0.00,0.0,WeatherDisplay:10.37,2013-09-11 15:19:00,
2013-09-11 11:24:00,88.0,78.6,30.06,NNW,332,3.5,3.5,74,0.00,BKN,OVC,0.00,0.0,WeatherDisplay:10.37,2013-09-11 15:24:00,
2013-09-11 11:29:00,88.2,78.0,30.06,WNW,297,2.3,0.0,72,0.00,BKN,OVC,0.00,0.0,WeatherDisplay:10.37,2013-09-11 15:29:00,
2013-09-11 11:34:00,88.5,77.5,30.06,WNW,290,5.8,0.0,70,0.00,BKN,OVC,0.00,0.0,WeatherDisplay:10.37,2013-09-11 15:34:00,
2013-09-11 11:39:00,88.5,77.5,30.06,WNW,296,3.5,0.0,70,0.00,BKN,OVC,0.00,0.0,WeatherDisplay:10.37,2013-09-11 15:39:00,
2013-09-11 11:44:00,88.7,77.2,30.06,SE,144,3.5,3.6,69,0.00,BKN,OVC,0.00,0.0,WeatherDisplay:10.37,2013-09-11 15:44:00,
2013-09-11 11:49:00,89.2,77.3,30.06,SW,235,5.8,5.8,68,0.00,BKN,OVC,0.00,0.0,WeatherDisplay:10.37,2013-09-11 15:49:00,
2013-09-11 11:54:00,89.6,77.2,30.06,SW,233,4.6,4.6,67,0.00,BKN,OVC,0.00,0.0,WeatherDisplay:10.37,2013-09-11 15:54:00,
2013-09-11 11:59:00,90.0,77.1,30.03,NNW,335,0.0,0.0,66,0.00,BKN,OVC,0.00,0.0,WeatherDisplay:10.37,2013-09-11 15:59:00,
2013-09-11 12:04:00,90.1,76.8,30.03,North,359,3.5,3.6,65,0.00,BKN,OVC,0.00,0.0,WeatherDisplay:10.37,2013-09-11 16:04:00,
2013-09-11 12:09:00,90.1,76.3,30.03,SW,226,2.3,0.0,64,0.00,BKN,OVC,0.00,0.0,WeatherDisplay:10.37,2013-09-11 16:09:00,
2013-09-11 12:14:00,90.3,76.0,30.03,South,170,5.8,5.8,63,0.00,BKN,OVC,0.00,0.0,WeatherDisplay:10.37,2013-09-11 16:14:00,
2013-09-11 12:19:00,90.5,75.7,30.03,WSW,258,5.8,5.8,62,0.00,BKN,OVC,0.00,0.0,WeatherDisplay:10.37,2013-09-11 16:19:00,
2013-09-11 12:24:00,90.7,75.4,30.03,WSW,240,5.8,5.8,61,0.00,BKN,OVC,0.00,0.0,WeatherDisplay:10.37,2013-09-11 16:24:00,
2013-09-11 12:29:00,90.9,75.1,30.03,SE,142,2.3,0.0,60,0.00,BKN,OVC,0.00,0.0,WeatherDisplay:10.37,2013-09-11 16:29:00,
2013-09-11 12:34:00,91.0,74.7,30.03,NW,322,3.5,0.0,59,0.00,BKN,OVC,0.00,0.0,WeatherDisplay:10.37,2013-09-11 16:34:00,
2013-09-11 12:39:00,91.2,74.9,30.03,NW,320,0.0,0.0,59,0.00,BKN,OVC,0.00,0.0,WeatherDisplay:10.37,2013-09-11 16:39:00,
2013-09-11 12:44:00,91.4,74.5,30.03,WSW,255,3.5,3.5,58,0.00,BKN,OVC,0.00,0.0,WeatherDisplay:10.37,2013-09-11 16:44:00,
2013-09-11 12:49:00,91.6,74.7,30.03,WNW,299,3.5,3.5,58,0.00,BKN,OVC,0.00,0.0,WeatherDisplay:10.37,2013-09-11 16:49:00,
2013-09-11 12:54:00,91.9,74.5,30.03,SSW,203,3.5,0.0,57,0.00,BKN,OVC,0.00,0.0,WeatherDisplay:10.37,2013-09-11 16:54:00,
2013-09-11 12:59:00,92.3,74.3,30.03,WNW,295,5.8,5.8,56,0.00,BKN,OVC,0.00,0.0,WeatherDisplay:10.37,2013-09-11 16:59:00,
2013-09-11 13:04:00,92.5,74.5,30.03,NW,316,3.5,3.5,56,0.00,SCT,OVC,0.00,0.0,WeatherDisplay:10.37,2013-09-11 17:04:00,
2013-09-11 13:09:00,92.7,74.1,30.03,NNE,27,3.5,3.5,55,0.00,SCT,OVC,0.00,0.0,WeatherDisplay:10.37,2013-09-11 17:09:00,
2013-09-11 13:14:00,93.0,74.5,30.03,WSW,238,3.5,3.5,55,0.00,SCT,OVC,0.00,0.0,WeatherDisplay:10.37,2013-09-11 17:14:00,
2013-09-11 13:19:00,93.4,74.2,30.03,West,278,5.8,5.8,54,0.00,SCT,OVC,0.00,0.0,WeatherDisplay:10.37,2013-09-11 17:19:00,
2013-09-11 13:24:00,93.4,74.2,30.03,WSW,238,5.8,0.0,54,0.00,SCT,OVC,0.00,0.0,WeatherDisplay:10.37,2013-09-11 17:24:00,
2013-09-11 13:29:00,93.7,74.0,30.00,WSW,251,3.5,0.0,53,0.00,SCT,OVC,0.00,0.0,WeatherDisplay:10.37,2013-09-11 17:29:00,
2013-09-11 13:34:00,93.7,72.9,30.00,South,177,3.5,0.0,51,0.00,SCT,OVC,0.00,0.0,WeatherDisplay:10.37,2013-09-11 17:34:00,
2013-09-11 13:39:00,94.1,73.2,30.00,SW,218,5.8,5.8,51,0.00,SCT,OVC,0.00,0.0,WeatherDisplay:10.37,2013-09-11 17:39:00,
2013-09-11 13:44:00,94.3,72.8,30.00,West,272,4.9,4.9,50,0.00,SCT,OVC,0.00,0.0,WeatherDisplay:10.37,2013-09-11 17:44:00,
2013-09-11 13:49:00,94.3,71.6,30.00,SSW,194,10.1,10.1,48,0.00,SCT,OVC,0.00,0.0,WeatherDisplay:10.37,2013-09-11 17:49:00,
2013-09-11 13:54:00,94.3,71.6,30.00,South,184,5.8,5.8,48,0.00,SCT,OVC,0.00,0.0,WeatherDisplay:10.37,2013-09-11 17:54:00,
2013-09-11 13:58:00,94.5,71.7,30.00,NNW,331,4.6,4.6,48,0.00,SCT,OVC,0.00,0.0,WeatherDisplay:10.37,2013-09-11 17:58:00,
2013-09-11 14:03:00,94.5,70.5,30.00,SSW,204,8.1,8.1,46,0.00,FEW,OVC,0.00,0.0,WeatherDisplay:10.37,2013-09-11 18:03:00,
2013-09-11 14:08:00,94.6,70.0,30.00,ENE,74,3.5,3.6,45,0.00,FEW,OVC,0.00,0.0,WeatherDisplay:10.37,2013-09-11 18:08:00,
2013-09-11 14:13:00,94.5,69.8,30.00,WSW,248,5.8,5.8,45,0.00,FEW,OVC,0.00,0.0,WeatherDisplay:10.37,2013-09-11 18:13:00,
2013-09-11 14:18:00,94.6,70.0,30.00,SSE,168,0.0,0.0,45,0.00,FEW,OVC,0.00,0.0,WeatherDisplay:10.37,2013-09-11 18:18:00,
2013-09-11 14:23:00,95.0,71.0,30.00,SE,136,3.5,0.0,46,0.00,FEW,OVC,0.00,0.0,WeatherDisplay:10.37,2013-09-11 18:23:00,
2013-09-11 14:28:00,95.4,71.3,30.00,WSW,250,10.4,10.4,46,0.00,FEW,OVC,0.00,0.0,WeatherDisplay:10.37,2013-09-11 18:28:00,
2013-09-11 14:33:00,95.4,71.3,30.00,SSW,212,8.1,8.1,46,0.00,FEW,OVC,0.00,0.0,WeatherDisplay:10.37,2013-09-11 18:33:00,
2013-09-11 14:38:00,95.4,70.7,30.00,South,177,8.1,8.1,45,0.00,FEW,OVC,0.00,0.0,WeatherDisplay:10.37,2013-09-11 18:38:00,
2013-09-11 14:43:00,95.0,70.3,30.00,South,177,4.6,4.6,45,0.00,FEW,OVC,0.00,0.0,WeatherDisplay:10.37,2013-09-11 18:43:00,
2013-09-11 14:48:00,95.4,71.3,30.00,South,177,3.5,4.0,46,0.00,FEW,OVC,0.00,0.0,WeatherDisplay:10.37,2013-09-11 18:48:00,
2013-09-11 14:53:00,95.4,70.7,30.00,SSW,195,3.5,0.0,45,0.00,FEW,OVC,0.00,0.0,WeatherDisplay:10.37,2013-09-11 18:53:00,
2013-09-11 14:58:00,95.4,70.7,30.00,WNW,284,0.0,0.0,45,0.00,FEW,OVC,0.00,0.0,WeatherDisplay:10.37,2013-09-11 18:58:00,
2013-09-11 15:03:00,95.4,70.7,30.00,South,173,5.8,5.8,45,0.00,FEW,OVC,0.00,0.0,WeatherDisplay:10.37,2013-09-11 19:03:00,
2013-09-11 15:08:00,95.0,69.7,30.00,SSW,203,4.6,4.6,44,0.00,FEW,OVC,0.00,0.0,WeatherDisplay:10.37,2013-09-11 19:08:00,
2013-09-11 15:13:00,94.8,69.5,29.97,SSW,206,8.1,8.1,44,0.00,FEW,OVC,0.00,0.0,WeatherDisplay:10.37,2013-09-11 19:13:00,
2013-09-11 15:18:00,94.8,68.8,29.97,South,177,5.8,6.7,43,0.00,FEW,OVC,0.00,0.0,WeatherDisplay:10.37,2013-09-11 19:18:00,
2013-09-11 15:23:00,94.6,68.7,29.97,South,177,5.8,5.8,43,0.00,FEW,OVC,0.00,0.0,WeatherDisplay:10.37,2013-09-11 19:23:00,
2013-09-11 15:28:00,94.8,68.8,29.97,South,188,3.5,0.0,43,0.00,FEW,OVC,0.00,0.0,WeatherDisplay:10.37,2013-09-11 19:28:00,
2013-09-11 15:33:00,94.8,69.5,29.97,NNE,17,10.4,10.4,44,0.00,FEW,OVC,0.00,0.0,WeatherDisplay:10.37,2013-09-11 19:33:00,
2013-09-11 15:38:00,94.8,69.5,29.97,WSW,253,5.8,5.8,44,0.00,FEW,OVC,0.00,0.0,WeatherDisplay:10.37,2013-09-11 19:38:00,
2013-09-11 15:43:00,94.6,69.3,29.97,South,177,8.1,8.1,44,0.00,FEW,OVC,0.00,0.0,WeatherDisplay:10.37,2013-09-11 19:43:00,
2013-09-11 15:48:00,94.5,69.8,29.97,SE,138,4.6,4.6,45,0.00,FEW,OVC,0.00,0.0,WeatherDisplay:10.37,2013-09-11 19:48:00,
2013-09-11 15:53:00,94.3,71.6,29.97,SW,227,5.8,5.8,48,0.00,FEW,OVC,0.00,0.0,WeatherDisplay:10.37,2013-09-11 19:53:00,
2013-09-11 15:58:00,94.3,70.3,29.97,SSW,192,4.6,4.6,46,0.00,FEW,OVC,0.00,0.0,WeatherDisplay:10.37,2013-09-11 19:58:00,
2013-09-11 16:03:00,94.1,71.4,29.97,SSE,149,5.8,5.8,48,0.00,SCT,OVC,0.00,0.0,WeatherDisplay:10.37,2013-09-11 20:03:00,
2013-09-11 16:08:00,93.9,71.2,29.97,SSE,152,2.3,0.0,48,0.00,SCT,OVC,0.00,0.0,WeatherDisplay:10.37,2013-09-11 20:08:00,
2013-09-11 16:13:00,93.7,71.7,29.97,SSE,164,3.5,3.5,49,0.00,SCT,OVC,0.00,0.0,WeatherDisplay:10.37,2013-09-11 20:13:00,
2013-09-11 16:18:00,93.7,71.1,29.97,SSW,196,8.1,8.1,48,0.00,SCT,OVC,0.00,0.0,WeatherDisplay:10.37,2013-09-11 20:18:00,
2013-09-11 16:23:00,93.6,70.9,29.97,SSW,206,6.9,6.9,48,0.00,SCT,OVC,0.00,0.0,WeatherDisplay:10.37,2013-09-11 20:23:00,
2013-09-11 16:28:00,93.2,70.6,29.97,SSW,196,3.5,3.5,48,0.00,SCT,OVC,0.00,0.0,WeatherDisplay:10.37,2013-09-11 20:28:00,
2013-09-11 16:33:00,93.0,71.0,29.97,SSW,198,5.8,5.8,49,0.00,SCT,OVC,0.00,0.0,WeatherDisplay:10.37,2013-09-11 20:33:00,
2013-09-11 16:38:00,92.8,71.5,29.97,WSW,250,5.8,5.8,50,0.00,SCT,OVC,0.00,0.0,WeatherDisplay:10.37,2013-09-11 20:38:00,
2013-09-11 16:43:00,92.7,71.9,29.97,SSE,166,5.8,5.8,51,0.00,SCT,OVC,0.00,0.0,WeatherDisplay:10.37,2013-09-11 20:43:00,
2013-09-11 16:48:00,92.5,71.7,29.97,South,177,3.5,3.6,51,0.00,SCT,OVC,0.00,0.0,WeatherDisplay:10.37,2013-09-11 20:48:00,
2013-09-11 16:54:00,92.3,72.1,29.97,SSW,207,5.8,5.8,52,0.00,SCT,OVC,0.00,0.0,WeatherDisplay:10.37,2013-09-11 20:54:00,
2013-09-11 16:59:00,92.1,72.5,29.97,SSW,192,5.8,5.8,53,0.00,SCT,OVC,0.00,0.0,WeatherDisplay:10.37,2013-09-11 20:59:00,
2013-09-11 17:04:00,91.9,72.4,29.97,SE,143,5.8,5.8,53,0.00,SCT,OVC,0.00,0.0,WeatherDisplay:10.37,2013-09-11 21:04:00,
2013-09-11 17:09:00,91.8,72.7,29.97,SSW,195,5.8,6.3,54,0.00,SCT,OVC,0.00,0.0,WeatherDisplay:10.37,2013-09-11 21:09:00,
2013-09-11 17:14:00,91.6,72.6,29.97,SE,141,8.1,8.1,54,0.00,SCT,OVC,0.00,0.0,WeatherDisplay:10.37,2013-09-11 21:14:00,
2013-09-11 17:19:00,91.4,72.4,29.97,SSE,166,8.1,8.1,54,0.00,SCT,OVC,0.00,0.0,WeatherDisplay:10.37,2013-09-11 21:19:00,
2013-09-11 17:24:00,91.2,72.8,29.97,WNW,286,9.2,9.2,55,0.00,SCT,OVC,0.00,0.0,WeatherDisplay:10.37,2013-09-11 21:24:00,
2013-09-11 17:29:00,90.9,72.5,29.94,SSW,192,5.8,6.7,55,0.00,SCT,OVC,0.00,0.0,WeatherDisplay:10.37,2013-09-11 21:29:00,
2013-09-11 17:34:00,90.7,72.8,29.94,South,180,3.5,3.5,56,0.00,SCT,OVC,0.00,0.0,WeatherDisplay:10.37,2013-09-11 21:34:00,
2013-09-11 17:39:00,90.7,72.8,29.94,South,173,5.8,5.8,56,0.00,SCT,OVC,0.00,0.0,WeatherDisplay:10.37,2013-09-11 21:39:00,
2013-09-11 17:44:00,90.5,72.7,29.94,South,173,5.8,5.8,56,0.00,SCT,OVC,0.00,0.0,WeatherDisplay:10.37,2013-09-11 21:44:00,
2013-09-11 17:49:00,90.3,73.0,29.94,SSW,203,3.5,3.6,57,0.00,SCT,OVC,0.00,0.0,WeatherDisplay:10.37,2013-09-11 21:49:00,
2013-09-11 17:54:00,89.6,72.9,29.94,SSE,150,4.6,4.6,58,0.00,SCT,OVC,0.00,0.0,WeatherDisplay:10.37,2013-09-11 21:54:00,
2013-09-11 17:59:00,88.9,72.7,29.94,South,180,5.8,5.8,59,0.00,SCT,OVC,0.00,0.0,WeatherDisplay:10.37,2013-09-11 21:59:00,
2013-09-11 18:04:00,88.3,72.7,29.94,South,190,5.8,5.8,60,0.00,CLR,OVC,0.00,0.0,WeatherDisplay:10.37,2013-09-11 22:04:00,
2013-09-11 18:09:00,87.8,72.7,29.94,SSW,202,5.8,5.8,61,0.00,CLR,OVC,0.00,0.0,WeatherDisplay:10.37,2013-09-11 22:09:00,
2013-09-11 18:14:00,87.4,72.8,29.94,SSW,198,4.6,4.6,62,0.00,CLR,OVC,0.00,0.0,WeatherDisplay:10.37,2013-09-11 22:14:00,
2013-09-11 18:19:00,87.1,73.0,29.94,South,177,5.8,5.8,63,0.00,CLR,OVC,0.00,0.0,WeatherDisplay:10.37,2013-09-11 22:19:00,
2013-09-11 18:24:00,86.7,73.1,29.94,SE,139,3.5,4.0,64,0.00,CLR,OVC,0.00,0.0,WeatherDisplay:10.37,2013-09-11 22:24:00,
2013-09-11 18:29:00,86.4,73.7,29.94,SSW,199,5.8,5.8,66,0.00,CLR,OVC,0.00,0.0,WeatherDisplay:10.37,2013-09-11 22:29:00,
2013-09-11 18:34:00,85.8,73.6,29.94,SSW,194,8.1,8.1,67,0.00,CLR,OVC,0.00,0.0,WeatherDisplay:10.37,2013-09-11 22:34:00,
2013-09-11 18:39:00,85.3,73.1,29.94,SSE,151,4.6,4.6,67,0.00,CLR,OVC,0.00,0.0,WeatherDisplay:10.37,2013-09-11 22:39:00,
2013-09-11 18:44:00,84.9,73.2,29.94,South,182,8.1,8.1,68,0.00,CLR,OVC,0.00,0.0,WeatherDisplay:10.37,2013-09-11 22:44:00,
2013-09-11 18:49:00,84.6,72.8,29.94,South,169,5.8,5.8,68,0.00,CLR,OVC,0.00,0.0,WeatherDisplay:10.37,2013-09-11 22:49:00,
2013-09-11 18:54:00,84.2,72.9,29.94,SW,225,5.8,5.8,69,0.00,CLR,OVC,0.00,0.0,WeatherDisplay:10.37,2013-09-11 22:54:00,
2013-09-11 18:59:00,84.0,73.2,29.97,SSE,164,5.8,5.8,70,0.00,CLR,OVC,0.00,0.0,WeatherDisplay:10.37,2013-09-11 22:59:00,
2013-09-11 19:04:00,83.7,73.3,29.97,South,177,6.9,6.9,71,0.00,CLR,OVC,0.00,0.0,WeatherDisplay:10.37,2013-09-11 23:04:00,
2013-09-11 19:09:00,83.5,73.1,29.97,SE,137,4.6,4.6,71,0.00,CLR,OVC,0.00,0.0,WeatherDisplay:10.37,2013-09-11 23:09:00,
2013-09-11 19:14:00,83.1,72.7,29.97,South,186,9.2,9.2,71,0.00,CLR,OVC,0.00,0.0,WeatherDisplay:10.37,2013-09-11 23:14:00,
2013-09-11 19:19:00,82.8,72.4,29.97,SSW,196,5.8,5.8,71,0.00,CLR,OVC,0.00,0.0,WeatherDisplay:10.37,2013-09-11 23:19:00,
2013-09-11 19:24:00,82.4,72.5,29.97,SSE,161,8.1,8.1,72,0.00,CLR,OVC,0.00,0.0,WeatherDisplay:10.37,2013-09-11 23:24:00,
2013-09-11 19:29:00,82.2,72.7,29.97,South,186,3.5,4.0,73,0.00,CLR,OVC,0.00,0.0,WeatherDisplay:10.37,2013-09-11 23:29:00,
2013-09-11 19:34:00,82.0,72.5,29.97,SSW,205,8.1,8.1,73,0.00,CLR,OVC,0.00,0.0,WeatherDisplay:10.37,2013-09-11 23:34:00,
2013-09-11 19:39:00,81.7,72.2,29.97,SSW,207,12.7,12.7,73,0.00,CLR,OVC,0.00,0.0,WeatherDisplay:10.37,2013-09-11 23:39:00,
2013-09-11 19:44:00,81.5,72.0,29.97,SE,142,11.5,11.5,73,0.00,CLR,OVC,0.00,0.0,WeatherDisplay:10.37,2013-09-11 23:44:00,
2013-09-11 19:49:00,81.3,71.8,29.97,SSW,197,5.8,7.6,73,0.00,CLR,OVC,0.00,0.0,WeatherDisplay:10.37,2013-09-11 23:49:00,
2013-09-11 19:54:00,81.1,71.3,29.97,SSE,162,5.8,5.8,72,0.00,CLR,OVC,0.00,0.0,WeatherDisplay:10.37,2013-09-11 23:54:00,
2013-09-11 19:59:00,81.0,71.1,29.97,WSW,254,3.5,3.5,72,0.00,CLR,OVC,0.00,0.0,WeatherDisplay:10.37,2013-09-11 23:59:00,
2013-09-11 20:04:00,80.8,70.9,29.97,South,173,6.9,6.9,72,0.00,CLR,OVC,0.00,0.0,WeatherDisplay:10.37,2013-09-12 00:04:00,
2013-09-11 20:09:00,80.6,70.3,29.97,SSW,199,5.8,5.8,71,0.00,CLR,OVC,0.00,0.0,WeatherDisplay:10.37,2013-09-12 00:09:00,
2013-09-11 20:15:00,80.6,70.3,29.97,SSE,166,8.1,8.1,71,0.00,CLR,OVC,0.00,0.0,WeatherDisplay:10.37,2013-09-12 00:15:00,
2013-09-11 20:20:00,80.4,70.2,29.97,SSW,211,3.0,8.0,71,0.00,CLR,OVC,0.00,0.0,WeatherDisplay:10.37,2013-09-12 00:20:00,
2013-09-11 20:25:00,80.2,70.0,29.97,SSW,194,8.1,8.1,71,0.00,CLR,OVC,0.00,0.0,WeatherDisplay:10.37,2013-09-12 00:25:00,
2013-09-11 20:30:00,80.2,70.0,30.00,South,173,8.1,8.1,71,0.00,CLR,OVC,0.00,0.0,WeatherDisplay:10.37,2013-09-12 00:30:00,
2013-09-11 20:35:00,80.1,69.4,30.00,ESE,115,3.5,3.5,70,0.00,CLR,OVC,0.00,0.0,WeatherDisplay:10.37,2013-09-12 00:35:00,
2013-09-11 20:40:00,79.9,69.2,30.00,SSW,209,3.0,6.0,70,0.00,CLR,OVC,0.00,0.0,WeatherDisplay:10.37,2013-09-12 00:40:00,
2013-09-11 20:45:00,79.7,69.0,30.00,NNE,15,5.8,0.0,70,0.00,CLR,OVC,0.00,0.0,WeatherDisplay:10.37,2013-09-12 00:45:00,
2013-09-11 20:50:00,79.5,68.9,30.00,SSW,207,0.0,0.0,70,0.00,CLR,OVC,0.00,0.0,WeatherDisplay:10.37,2013-09-12 00:50:00,
2013-09-11 20:55:00,79.3,68.7,30.00,SSW,196,2.3,0.0,70,0.00,CLR,OVC,0.00,0.0,WeatherDisplay:10.37,2013-09-12 00:55:00,
2013-09-11 21:00:00,79.3,68.7,30.00,South,177,3.5,4.5,70,0.00,CLR,OVC,0.00,0.0,WeatherDisplay:10.37,2013-09-12 01:00:00,
2013-09-11 21:05:00,79.2,68.9,30.00,South,173,5.8,5.8,71,0.00,FEW,OVC,0.00,0.0,WeatherDisplay:10.37,2013-09-12 01:05:00,
2013-09-11 21:10:00,79.2,68.9,30.00,SW,226,9.2,9.2,71,0.00,FEW,OVC,0.00,0.0,WeatherDisplay:10.37,2013-09-12 01:10:00,
2013-09-11 21:15:00,79.0,68.8,30.00,South,177,8.1,8.1,71,0.00,FEW,OVC,0.00,0.0,WeatherDisplay:10.37,2013-09-12 01:15:00,
2013-09-11 21:20:00,79.0,68.8,30.00,South,189,5.8,5.8,71,0.00,FEW,OVC,0.00,0.0,WeatherDisplay:10.37,2013-09-12 01:20:00,
2013-09-11 21:25:00,78.8,68.6,30.00,SE,133,4.6,4.6,71,0.00,FEW,OVC,0.00,0.0,WeatherDisplay:10.37,2013-09-12 01:25:00,
2013-09-11 21:30:00,78.8,68.6,29.97,SE,131,0.0,0.0,71,0.00,FEW,OVC,0.00,0.0,WeatherDisplay:10.37,2013-09-12 01:30:00,
2013-09-11 21:35:00,78.6,68.4,29.97,SE,132,0.0,0.0,71,0.00,FEW,OVC,0.00,0.0,WeatherDisplay:10.37,2013-09-12 01:35:00,
2013-09-11 21:40:00,78.4,68.3,29.97,South,183,5.8,5.8,71,0.00,FEW,OVC,0.00,0.0,WeatherDisplay:10.37,2013-09-12 01:40:00,
2013-09-11 21:45:00,78.3,68.1,30.00,SSE,157,5.8,5.8,71,0.00,FEW,OVC,0.00,0.0,WeatherDisplay:10.37,2013-09-12 01:45:00,
2013-09-11 21:50:00,78.3,68.5,30.00,SSW,193,0.0,0.0,72,0.00,FEW,OVC,0.00,0.0,WeatherDisplay:10.37,2013-09-12 01:50:00,
2013-09-11 21:55:00,78.1,68.3,30.00,SW,219,5.8,5.8,72,0.00,FEW,OVC,0.00,0.0,WeatherDisplay:10.37,2013-09-12 01:55:00,
2013-09-11 22:00:00,78.1,68.3,30.00,South,177,6.9,6.9,72,0.00,FEW,OVC,0.00,0.0,WeatherDisplay:10.37,2013-09-12 02:00:00,
2013-09-11 22:05:00,77.9,68.1,30.00,South,184,3.5,3.5,72,0.00,CLR,OVC,0.00,0.0,WeatherDisplay:10.37,2013-09-12 02:05:00,
2013-09-11 22:10:00,77.9,68.1,30.00,SSW,205,4.6,4.6,72,0.00,CLR,OVC,0.00,0.0,WeatherDisplay:10.37,2013-09-12 02:10:00,
2013-09-11 22:15:00,77.7,68.0,30.00,NW,322,3.5,3.6,72,0.00,CLR,OVC,0.00,0.0,WeatherDisplay:10.37,2013-09-12 02:15:00,
2013-09-11 22:20:00,77.7,68.0,30.00,South,186,3.5,3.6,72,0.00,CLR,OVC,0.00,0.0,WeatherDisplay:10.37,2013-09-12 02:20:00,
2013-09-11 22:25:00,77.7,68.0,30.00,SW,234,0.0,0.0,72,0.00,CLR,OVC,0.00,0.0,WeatherDisplay:10.37,2013-09-12 02:25:00,
2013-09-11 22:30:00,77.5,67.8,30.00,SSW,203,2.3,0.0,72,0.00,CLR,OVC,0.00,0.0,WeatherDisplay:10.37,2013-09-12 02:30:00,
2013-09-11 22:35:00,77.5,68.2,30.00,NNW,329,5.8,5.8,73,0.00,CLR,OVC,0.00,0.0,WeatherDisplay:10.37,2013-09-12 02:35:00,
2013-09-11 22:40:00,77.4,68.0,30.00,WNW,297,5.8,5.8,73,0.00,CLR,OVC,0.00,0.0,WeatherDisplay:10.37,2013-09-12 02:40:00,
2013-09-11 22:45:00,77.4,68.0,30.00,WSW,254,10.4,10.4,73,0.00,CLR,OVC,0.00,0.0,WeatherDisplay:10.37,2013-09-12 02:45:00,
2013-09-11 22:50:00,77.5,68.2,30.00,WNW,302,3.5,3.5,73,0.00,CLR,OVC,0.00,0.0,WeatherDisplay:10.37,2013-09-12 02:50:00,
2013-09-11 22:55:00,77.5,68.2,30.00,NNW,345,8.1,8.1,73,0.00,CLR,OVC,0.00,0.0,WeatherDisplay:10.37,2013-09-12 02:55:00,
2013-09-11 23:00:00,77.5,68.2,30.00,SW,222,3.5,3.5,73,0.00,CLR,OVC,0.00,0.0,WeatherDisplay:10.37,2013-09-12 03:00:00,
2013-09-11 23:05:00,77.5,68.2,30.00,NW,307,5.8,5.8,73,0.00,FEW,OVC,0.00,0.0,WeatherDisplay:10.37,2013-09-12 03:05:00,
2013-09-11 23:10:00,77.5,68.2,30.00,WNW,303,0.0,0.0,73,0.00,FEW,OVC,0.00,0.0,WeatherDisplay:10.37,2013-09-12 03:10:00,
2013-09-11 23:15:00,77.4,68.0,30.00,NNW,334,0.0,0.0,73,0.00,FEW,OVC,0.00,0.0,WeatherDisplay:10.37,2013-09-12 03:15:00,
2013-09-11 23:20:00,77.2,67.5,30.00,NNW,332,0.0,0.0,72,0.00,FEW,OVC,0.00,0.0,WeatherDisplay:10.37,2013-09-12 03:20:00,
2013-09-11 23:25:00,77.2,67.5,30.00,NNW,332,0.0,0.0,72,0.00,FEW,OVC,0.00,0.0,WeatherDisplay:10.37,2013-09-12 03:25:00,
2013-09-11 23:30:00,77.0,67.7,29.97,NNW,332,0.0,0.0,73,0.00,FEW,OVC,0.00,0.0,WeatherDisplay:10.37,2013-09-12 03:30:00,
2013-09-11 23:35:00,77.0,67.7,29.97,NNW,332,0.0,0.0,73,0.00,FEW,OVC,0.00,0.0,WeatherDisplay:10.37,2013-09-12 03:35:00,
2013-09-11 23:40:00,76.8,67.5,29.97,NNW,332,0.0,0.0,73,0.00,FEW,OVC,0.00,0.0,WeatherDisplay:10.37,2013-09-12 03:40:00,
2013-09-11 23:45:00,76.5,67.2,29.97,SSE,155,0.0,0.0,73,0.00,FEW,OVC,0.00,0.0,WeatherDisplay:10.37,2013-09-12 03:45:00,
2013-09-11 23:50:00,76.5,67.6,29.97,South,173,0.0,0.0,74,0.00,FEW,OVC,0.00,0.0,WeatherDisplay:10.37,2013-09-12 03:50:00,
2013-09-11 23:55:00,76.3,67.4,29.97,SSW,193,0.0,0.0,74,0.00,FEW,OVC,0.00,0.0,WeatherDisplay:10.37,2013-09-12 03:55:00,